DECAYED

STARLINK-2416, 47829 (Decayed)

Orbit data source: Space-Track

STARLINK-2416, 47829 was a payload satellite owned by SpaceX/Seattle (US) in LEO that was launched on Thu, 11 Mar 2021 UTC via an FALCON 9 launch vehicle from the Air Force Eastern Test Range (AFETR). Payload-class satellites include a variety of spacecraft equipped with specific instruments for various scientific and technological missions. These include communications satellites like Starlink; space stations such as the ISS; scientific satellites like the Hubble; Earth observation satellites from companies like Planet Labs, Umbra, and HawkEye 360; GPS; miniature CubeSats for education and research; and military/defense satellites.

Not visible in the next 10 days
Identifier
47829, 2021-018AU
Orbit
Decayed
Country
Flag of USUS
Related business
Manufacturer
SpaceX/Seattle
Mission
Decayed Commercial Communications
Bus & Motor
STARLINK, Unknown motor
Mass
260 kg wet, ~248 kg dry
Launch date (UTC)
2021-03-11 (5 years ago)
Launch vehicle
FALCON 9
Launch site
Air Force Eastern Test Range (AFETR)
Object type
Payload
Rocket body
Debris
Shape & HBR
Box + 1 Pan, 10.1 m
Radar Cross Section
13.562 m², Large (>1 m²)

Expand to show TLE details & history
Last TLE update: 7 months ago

TLE from 7 months ago
0 STARLINK-2416
1 47829U 21018AU  25198.15754461  .08657810  12349-4  72129-3 0  9992
2 47829  53.0201 197.2910 0004605 283.0094 126.1309 16.38875816241195
Epoch: 2025-07-17T03:46Z
TLE epoch observation values (Epoch: 2025-07-17T03:46:51.854Z)
Latitude
37.32425°
Longitude
-119.84382°
Altitude
173.58 km
Speed
7.806 km/s
True Right ascension
15h 28m 23s
True Declination
37° 08' 38"
Sunlit
Object was in daylight at epoch
Visualization orbit readout
Latitude
Unknown
Longitude
Unknown
Altitude
Unknown
Speed
Unknown
Apparent Right ascension
Unknown
Apparent Declination
Unknown
Sunlit
N/A
Visualization observer readout
Local Sidereal Time
01:00:09
Azimuth
Unknown
Elevation
Unknown
Doppler factor
Unknown
Orbital elements
Apogee altitude
172.101 km
Perigee altitude
166.071 km
Semi-major axis
6,547.223 km
Eccentricity
0.00046
Inclination
53.0201°
RAAN
197.291°
Arg. of periapsis
283.0094°
True anomaly
126.17351°
Mean anomaly
126.1309°
Eccentric anomaly
126.1522°
Mean motion
4.09692 °/min
Orbital period
87.87 mins
BSTAR
0.00072129
Loading maneuver chart data...
Computing Atmospheric mass density...
Loading historical data...
Loading historical data...
Loading historical data...
Loading historical data...
Loading historical data...
Loading historical data...
Loading historical data...

Documentation

Showing up to 5 results
|